DateTimeUTC,F1_A11,F1_S11,BsB_S11,BsG_S11,BsR_S11,BbsB_S11,BbsG_S11,BbsR_S11,BaB_A11,BaG_A11,BaR_A11,Tu_S11,T_S11,Uu_S11,U_S11,P_S11,T1_A11
2021-04-23T01:00:00Z,00000200,21000000,,,,,,,-000.12,0000.08,0000.20,17.3,24.6,,00.0,0670.1,31.0
2021-04-23T01:01:00Z,00000200,21000000,,,,,,,-000.05,-000.10,-000.31,17.3,24.6,,00.0,0670.2,31.0
2021-04-23T01:02:00Z,00000200,21000000,,,,,,,0000.17,0000.16,0000.15,17.2,24.6,,00.0,0670.2,31.0
2021-04-23T01:03:00Z,00000200,61000000,,,,,,,0000.55,0000.86,0000.73,17.2,24.6,,00.0,0670.2,31.0
2021-04-23T01:04:00Z,00000200,41000000,0003.25,0002.16,0001.66,0000.93,0000.20,-000.03,0001.43,0001.15,0000.59,17.3,24.4,00.1,00.0,0671.1,31.0
2021-04-23T01:05:00Z,00000200,01000000,0004.27,0002.54,0001.87,0000.37,0000.64,0000.09,0001.35,0000.90,0001.06,17.3,24.3,00.1,00.1,0671.2,31.0
2021-04-23T01:06:00Z,00000200,01000000,0003.58,0002.16,0001.41,0000.20,0000.55,0000.47,0001.19,0001.13,0000.70,17.4,24.3,00.1,00.1,0671.2,31.0
2021-04-23T01:07:00Z,00000200,01000000,0003.24,0002.66,0001.53,0000.28,0000.39,0000.19,0000.83,0001.11,0001.14,17.4,24.3,00.1,00.1,0671.2,31.0
2021-04-23T01:08:00Z,00000200,01000000,0002.87,0002.12,0001.86,0000.96,0000.36,0000.19,0001.49,0000.86,0000.63,17.5,24.4,00.1,00.1,0671.2,31.0
2021-04-23T01:09:00Z,00000200,01000000,0003.14,0002.34,0001.30,0000.88,0000.20,0000.29,0001.09,0001.20,0000.71,17.5,24.3,00.1,00.1,0671.2,31.0
2021-04-23T01:10:00Z,00000200,01000000,0004.12,0002.35,0001.68,0000.70,0000.54,0000.08,0001.26,0001.08,0000.85,17.6,24.4,00.1,00.0,0671.2,31.1
2021-04-23T01:11:00Z,00000200,01000000,0003.56,0002.46,0001.94,0000.77,0000.52,0000.30,0000.70,0000.50,0000.27,17.6,24.4,00.1,00.0,0671.2,31.1
2021-04-23T01:12:00Z,00000200,01000000,0004.03,0002.83,0001.81,0000.57,0000.36,0000.45,0001.18,0001.07,0001.21,17.5,24.4,00.1,00.0,0671.3,31.0
2021-04-23T01:13:00Z,00000200,01000000,0004.37,0002.50,0001.33,0001.13,0000.24,0000.41,0001.50,0001.41,0000.90,17.5,24.3,00.1,00.1,0671.3,31.0
2021-04-23T01:14:00Z,00000200,01000000,0003.27,0002.17,0001.64,0000.14,0000.52,0000.11,0000.69,0000.97,0000.23,17.5,24.3,00.1,00.1,0671.3,31.0
2021-04-23T01:15:00Z,00000200,01000000,0003.43,0002.58,0001.55,0000.66,0000.50,0000.09,0001.60,0001.06,0001.20,17.5,24.3,00.1,00.0,0671.3,31.0
2021-04-23T01:16:00Z,00000200,01000000,0003.06,0002.44,0001.25,0000.92,0000.29,0000.28,0000.95,0001.22,0000.56,17.5,24.3,00.0,00.0,0671.3,31.0
2021-04-23T01:17:00Z,00000200,01000000,0002.98,0002.38,0001.24,0000.03,0000.41,-000.03,0001.43,0001.01,0000.99,17.5,24.3,00.1,00.0,0671.3,31.0
2021-04-23T01:18:00Z,00000200,01000000,0003.69,0001.91,0001.62,0000.24,0000.24,0000.15,0000.93,0000.79,0000.74,17.5,24.3,00.1,00.1,0671.3,31.0
2021-04-23T01:19:00Z,00000200,01000000,0003.51,0002.08,0001.63,0001.10,0000.49,0000.31,0001.17,0000.96,0000.72,17.4,24.3,00.1,00.0,0671.3,31.0
2021-04-23T01:20:00Z,00000200,01000000,0003.11,0002.27,0001.44,0000.88,0000.48,0000.12,0001.33,0000.88,0000.60,17.4,24.3,00.1,00.1,0671.3,31.0
2021-04-23T01:21:00Z,00000200,01000000,0003.70,0002.04,0001.41,0000.63,0000.30,0000.10,0000.78,0001.05,0000.99,17.4,24.3,00.1,00.0,0671.3,31.0
2021-04-23T01:22:00Z,00000200,01000000,0002.72,0002.07,0001.55,0000.52,0000.47,0000.25,0001.35,0001.43,0000.99,17.4,24.3,00.1,00.0,0671.3,31.0
2021-04-23T01:23:00Z,00000200,01000000,0003.23,0002.00,0001.45,0000.01,0000.39,0000.39,0001.13,0001.18,0000.62,17.4,24.3,00.1,00.1,0671.3,31.0
2021-04-23T01:24:00Z,00000200,01000000,0003.59,0002.55,0001.50,0000.45,0000.46,0000.08,0001.15,0000.84,0000.60,17.4,24.3,00.1,00.1,0671.3,31.0
2021-04-23T01:25:00Z,00000200,01000000,0004.04,0002.21,0001.20,0000.52,0000.27,0000.34,0001.34,0000.95,0001.09,17.4,24.3,00.1,00.0,0671.3,31.0
2021-04-23T01:26:00Z,00000200,01000000,0003.50,0002.07,0001.42,0000.17,0000.41,0000.12,0001.12,0001.29,0000.94,17.4,24.2,00.1,00.1,0671.3,31.0
2021-04-23T01:27:00Z,00000200,01000000,0003.08,0002.26,0001.46,0000.56,0000.41,-000.06,0001.27,0000.83,0000.54,17.4,24.2,00.1,00.1,0671.3,31.0
2021-04-23T01:28:00Z,00000200,01000000,0003.26,0002.20,0001.39,0000.70,0000.55,-000.15,0000.96,0001.02,0000.77,17.4,24.2,00.1,00.0,0671.3,31.0
2021-04-23T01:29:00Z,00000200,01000000,0003.39,0002.38,0001.47,0000.95,0000.43,0000.35,0001.16,0001.14,0000.95,17.3,24.2,00.1,00.1,0671.3,31.0
2021-04-23T01:30:00Z,00000200,01000000,0003.41,0002.22,0001.24,0001.05,0000.30,0000.01,0000.94,0000.99,0000.86,17.3,24.2,00.1,00.1,0671.3,31.0
2021-04-23T01:31:00Z,00000200,01000000,0003.29,0002.43,0001.72,0000.87,0000.24,0000.01,0001.26,0001.09,0000.77,17.3,24.2,00.1,00.1,0671.4,31.0
2021-04-23T01:32:00Z,00000200,01000000,0003.81,0002.68,0001.65,0000.30,0000.51,0000.26,0001.22,0001.09,0000.71,17.3,24.2,00.1,00.1,0671.4,31.0
2021-04-23T01:33:00Z,00000200,01000000,0002.88,0002.35,0001.72,0000.99,0000.32,0000.30,0001.35,0001.39,0000.89,17.3,24.2,00.1,00.1,0671.4,31.0
2021-04-23T01:34:00Z,00000200,01000000,0002.82,0002.50,0001.58,0000.64,0000.79,0000.39,0001.12,0000.61,0000.85,17.3,24.2,00.2,00.1,0671.4,31.0
2021-04-23T01:35:00Z,00000200,01000000,0003.53,0002.55,0001.59,0000.28,0000.24,0000.31,0001.57,0001.05,0000.86,17.3,24.2,00.1,00.1,0671.4,31.0
2021-04-23T01:36:00Z,00000200,01000000,0003.15,0002.33,0001.71,0000.77,0000.23,0000.33,0000.86,0000.87,0000.73,17.3,24.2,00.1,00.1,0671.4,31.0
2021-04-23T01:37:00Z,00000200,01000000,0003.97,0002.31,0001.59,0000.92,0000.47,0000.11,0001.08,0001.37,0001.17,17.4,24.2,00.2,00.1,0671.4,31.0
2021-04-23T01:38:00Z,00000200,01000000,0003.57,0002.47,0001.60,0000.98,0000.40,0000.15,0001.18,0001.05,0000.53,17.4,24.2,00.2,00.1,0671.4,31.1
2021-04-23T01:39:00Z,00000200,01000000,0003.15,0002.38,0001.47,0000.75,0000.21,0000.18,0001.23,0001.08,0001.05,17.5,24.2,00.1,00.1,0671.4,31.1
2021-04-23T01:40:00Z,00000200,01000000,0003.61,0002.33,0001.33,0000.88,0000.41,-000.08,0000.82,0000.64,0000.26,17.5,24.3,00.1,00.1,0671.4,31.1
2021-04-23T01:41:00Z,00000200,01000000,0002.93,0001.90,0001.39,0000.11,0000.35,0000.18,0001.09,0001.52,0000.93,17.5,24.3,00.1,00.1,0671.4,31.1
2021-04-23T01:42:00Z,00000200,01000000,0003.27,0002.08,0001.19,0000.50,0000.34,0000.23,0001.10,0000.69,0000.65,17.5,24.3,00.1,00.1,0671.4,31.0
2021-04-23T01:43:00Z,00000200,01000000,0003.28,0002.11,0001.13,0000.44,0000.07,0000.01,0001.05,0000.93,0000.47,17.5,24.3,00.1,00.1,0671.4,31.1
2021-04-23T01:44:00Z,00000200,01000000,0002.73,0002.06,0001.19,0000.46,0000.17,0000.13,0000.98,0000.89,0000.82,17.5,24.3,00.1,00.1,0671.4,31.0
2021-04-23T01:45:00Z,00000200,01000000,0003.34,0001.94,0001.44,0000.78,0000.44,0000.13,0001.32,0001.23,0000.90,17.5,24.2,00.1,00.1,0671.4,31.0
2021-04-23T01:46:00Z,00000200,01000000,0003.22,0002.18,0001.40,0000.20,0000.46,0000.22,0001.13,0001.19,0000.82,17.4,24.3,00.1,00.1,0671.4,31.0
2021-04-23T01:47:00Z,00000200,01000000,0002.53,0001.77,0001.21,0000.82,0000.20,0000.08,0001.03,0001.04,0000.83,17.5,24.3,00.1,00.1,0671.4,31.0
2021-04-23T01:48:00Z,00000200,01000000,0002.63,0001.86,0000.89,0000.10,0000.51,0000.13,0000.90,0000.54,0000.58,17.4,24.2,00.1,00.1,0671.4,31.0
2021-04-23T01:49:00Z,00000200,01000000,0002.72,0001.89,0001.08,0000.71,0000.21,0000.39,0001.13,0000.90,0000.84,17.4,24.3,00.2,00.1,0671.4,31.0
2021-04-23T01:50:00Z,00000200,01000000,0002.83,0002.02,0000.98,0000.63,0000.26,-000.08,0000.72,0000.75,0000.22,17.4,24.2,00.1,00.1,0671.4,31.0
2021-04-23T01:51:00Z,00000200,01000000,0002.46,0001.91,0001.42,0000.71,0000.26,0000.21,0000.94,0000.98,0000.80,17.4,24.2,00.1,00.1,0671.5,31.1
2021-04-23T01:52:00Z,00000200,01000000,0002.25,0001.90,0001.33,0000.53,0000.08,0000.34,0000.94,0000.69,0000.68,17.4,24.2,00.1,00.0,0671.5,31.1
2021-04-23T01:53:00Z,00000200,01000000,0003.01,0001.91,0000.90,0000.46,0000.11,-000.07,0001.19,0001.21,0000.81,17.4,24.2,00.1,00.1,0671.4,31.0
2021-04-23T01:54:00Z,00000200,01000000,0002.17,0001.56,0001.08,0000.38,0000.11,0000.19,0001.17,0000.94,0000.48,17.4,24.2,00.1,00.1,0671.5,31.0
2021-04-23T01:55:00Z,00000200,01000000,0002.22,0001.67,0001.22,0000.27,0000.32,0000.61,0000.59,0000.71,0000.79,17.3,24.2,00.1,00.1,0671.4,31.0
2021-04-23T01:56:00Z,00000200,01000000,0002.09,0001.37,0000.89,0000.66,0000.17,0000.06,0001.16,0000.96,0000.62,17.3,24.2,00.1,00.1,0671.4,31.0
2021-04-23T01:57:00Z,00000200,41000000,,,,,,,0000.24,0000.14,0000.22,17.4,24.2,00.3,00.2,0671.5,31.0
2021-04-23T01:58:00Z,00000200,61000000,,,,,,,-000.10,-000.08,0000.04,17.1,24.3,00.0,00.0,0670.5,31.0
2021-04-23T01:59:00Z,00000200,21000000,,,,,,,0000.10,0000.04,-000.02,17.1,24.4,,00.0,0670.5,31.0
